RH
100 88 72 70 78 84 85 97 100 100 100 100 96 100 90 79 41 92 100 100 100 100 96 100 95 95 91 64 40 23 29 36 55 62 100 100 100 100 97 99 97 100 100 100
100 100 100 89 89 94 100 100 100 100 100 98 100 96 91 68 80 94 100 100 100 97 88 98 100 100 94 59 39 24 30 43 54 66 87 99 100 100 100 100 100 100 100 100
100 100 100 100 100 100 94 100 100 100 97 100 98 100 94 77 95 100 100 100 100 100 100 100 100 100 80 54 38 24 28 46 68 79 85 90 89 99 100 100 100 100 100 98
100 100 100 100 100 100 100 100 100 100 98 100 100 100 95 100 98 100 100 100 100 100 100 100 100 81 70 50 36 24 26 43 79 96 97 84 90 95 100 100 100 100 100 100
100 96 100 100 100 100 100 100 100 100 100 100 100 100 100 70 86 100 100 100 100 100 100 100 98 78 61 42 31 24 28 35 49 92 100 88 80 94 100 100 100 100 100 100
100 100 100 100 100 100 100 100 100 100 100 100 94 100 97 84 93 100 98 100 100 100 100 100 81 65 50 34 23 26 33 39 53 68 98 93 84 97 83 100 100 100 100 100
100 100 100 100 100 100 100 100 94 100 100 100 100 100 88 100 100 100 100 100 100 100 100 100 77 59 36 22 27 41 42 38 54 63 91 91 97 92 100 87 97 100 100 100
100 100 100 100 100 100 100 100 100 100 100 100 100 97 100 100 99 98 100 100 100 100 100 75 60 49 27 18 42 46 49 45 48 57 77 98 100 100 100 100 100 100 100 100
100 100 100 100 100 100 100 100 100 100 100 100 100 100 100 100 100 98 100 100 100 100 82 71 37 33 19 21 52 50 45 49 43 58 63 86 100 100 100 100 100 100 100 100
100 100 100 100 100 100 100 100 100 98 94 100 90 100 100 86 100 100 100 100 100 82 69 38 29 22 19 32 48 47 46 43 47 47 51 82 95 100 100 99 100 100 100 97
100 100 100 100 100 89 100 100 100 100 100 100 100 100 97 86 100 100 100 96 82 75 54 28 22 16 23 32 43 50 43 45 35 39 43 58 88 99 99 93 80 84 87 89
100 100 100 100 100 100 100 100 100 100 100 100 100 100 100 100 100 100 85 81 59 40 29 25 16 20 28 30 37 51 45 32 32 28 38 43 62 91 99 95 92 89 87 84
100 100 100 100 100 100 100 100 100 100 100 93 95 99 100 97 96 88 62 38 33 26 22 16 20 26 28 30 36 42 38 27 21 21 28 30 39 50 98 99 86 83 82 99
100 100 100 100 100 100 100 98 100 100 100 100 100 100 100 91 81 41 32 30 21 17 15 18 22 26 26 24 22 25 32 24 20 18 23 20 25 27 36 54 66 70 76 87
97 100 100 92 84 85 82 94 88 95 97 91 98 96 84 50 30 26 25 17 15 15 18 21 24 22 13 16 17 22 23 26 20 19 23 20 19 20 25 32 51 60 72 77
50 56 53 57 73 76 75 76 78 76 72 78 59 42 34 24 25 16 14 15 18 19 20 22 18 15 12 14 19 24 24 14 15 17 18 19 24 25 22 27 37 46 48 65
50 51 54 56 55 57 62 59 50 46 43 41 33 23 22 16 14 14 16 17 18 17 16 16 15 16 12 13 16 15 16 16 16 16 16 18 19 23 21 26 33 33 39 60
38 41 43 42 42 40 39 35 32 27 23 24 21 15 14 14 17 17 17 17 14 14 14 14 14 13 11 11 12 12 12 13 14 15 15 18 17 18 21 23 28 30 32 46
24 26 26 25 22 19 19 22 23 23 19 15 15 16 18 20 18 15 13 13 14 12 14 14 13 12 11 10 11 12 12 13 13 13 14 14 15 16 20 20 19 22 26 34
22 23 25 24 22 21 19 17 16 17 19 18 18 19 21 18 14 14 14 13 13 13 13 12 11 10 9 9 9 10 11 12 13 12 13 14 16 17 17 18 18 22 24 24
20 19 18 19 19 21 22 26 26 23 20 18 18 17 16 14 14 13 13 13 13 11 9 7 7 7 6 5 6 7 9 11 13 13 12 12 13 16 15 18 18 21 22 22
30 30 32 32 34 29 28 27 25 21 17 16 18 17 15 13 13 13 13 10 8 7 8 8 8 8 8 8 8 7 7 7 9 12 13 14 14 15 16 18 18 19 20 22
37 35 34 34 32 30 24 19 18 19 19 18 15 14 13 13 12 10 9 9 9 8 8 8 8 8 8 9 8 9 9 7 6 8 11 13 14 15 16 17 18 17 17 19
35 30 25 23 20 19 21 21 19 17 16 14 14 14 13 9 9 10 10 9 8 8 7 7 7 7 7 7 7 8 8 7 6 6 9 12 14 17 16 15 16 16 17 17
21 20 22 23 22 21 19 17 15 13 13 13 12 9 9 10 11 10 9 8 8 7 7 8 7 7 8 8 8 8 8 8 7 6 7 11 12 15 16 18 16 17 17 18
23 23 22 20 18 16 14 13 13 13 12 9 8 10 11 11 10 9 8 8 8 8 8 7 7 8 8 8 8 8 8 8 7 6 7 10 14 15 16 16 17 18 18 18
22 19 17 14 13 13 12 12 11 9 8 10 12 12 10 9 8 8 8 8 9 9 8 8 7 7 7 8 8 8 8 8 7 6 7 9 14 17 18 19 20 20 19 19
Wind_Speed
81 81 79 81 81 81 80 80 84 84 84 85 88 91 96 95 94 91 91 94 101 105 105 100 106 105 94 105 85 59 39 35 42 49 63 69 71 68 66 62 59 57 56 57
84 86 85 85 87 89 85 88 89 89 88 93 91 92 97 95 96 96 95 102 107 101 105 107 99 105 98 99 75 58 44 34 38 49 55 62 71 73 69 66 62 57 59 60
86 88 90 92 91 92 92 94 96 93 95 95 95 94 97 96 98 100 101 104 104 107 110 106 101 101 104 95 75 59 44 37 40 43 49 53 60 72 74 71 62 60 56 62
91 93 94 96 95 96 96 96 102 96 96 98 100 100 101 101 104 106 105 107 106 113 108 108 105 111 107 92 75 59 47 38 44 49 51 51 55 61 70 71 69 65 63 61
92 92 96 101 97 98 101 100 102 101 98 103 104 106 107 102 103 105 113 109 114 107 108 116 122 111 104 83 71 57 48 42 42 49 58 58 55 56 62 67 69 65 64 62
95 99 101 102 104 103 101 104 106 105 107 106 107 109 108 107 109 112 114 114 118 117 115 117 117 110 89 78 66 56 48 46 45 45 54 57 53 51 59 65 64 63 62 62
100 101 102 103 109 109 110 110 108 109 108 111 109 111 112 111 115 117 116 119 116 120 125 128 123 109 88 74 59 51 52 47 47 48 53 52 55 55 54 58 67 62 60 60
104 105 106 107 109 110 108 111 112 110 109 112 112 113 115 115 117 118 122 115 120 126 127 125 114 88 82 69 56 51 52 49 48 49 51 51 54 53 51 49 53 59 61 58
110 113 110 109 109 109 109 113 109 109 115 116 116 117 122 119 126 124 126 128 132 120 124 128 95 86 76 64 53 56 51 51 48 50 52 52 54 55 53 54 54 54 57 54
114 116 116 115 116 115 116 117 116 116 117 118 117 118 123 127 129 133 130 127 129 135 129 101 91 79 72 58 54 54 57 52 49 52 51 54 59 58 61 57 55 58 58 57
116 117 120 120 117 121 119 118 119 123 125 126 124 127 130 130 127 129 130 138 137 135 115 97 84 71 68 58 55 57 57 55 52 52 49 51 61 65 65 63 61 61 58 54
120 121 120 118 115 119 122 120 122 128 129 131 133 136 136 135 135 137 139 142 124 101 98 87 76 69 63 59 57 61 60 55 53 49 50 50 57 65 67 69 69 63 59 54
129 127 127 129 132 128 129 132 131 134 132 137 137 137 138 138 140 138 130 110 103 99 85 77 72 66 65 62 61 60 59 59 50 50 51 51 52 57 68 75 72 67 60 59
131 128 133 133 135 137 139 136 136 135 136 138 139 141 139 136 139 119 110 104 92 82 78 72 68 66 65 62 57 54 56 57 52 44 54 54 53 56 64 68 68 66 61 63
125 127 129 130 130 132 134 133 134 133 133 133 136 138 137 121 114 102 98 89 82 77 72 69 66 65 58 51 48 46 54 54 54 46 57 50 51 51 54 57 61 60 58 60
115 117 119 119 121 123 123 125 126 128 128 131 119 115 112 108 96 88 85 82 76 73 70 67 64 62 56 46 44 51 62 52 50 46 49 44 47 49 46 48 53 57 53 51
105 107 110 112 114 115 116 116 115 114 111 107 106 102 96 88 85 83 79 75 72 68 64 63 59 60 54 45 48 54 51 49 48 45 45 43 47 46 47 46 51 50 47 50
98 100 101 102 104 104 103 103 102 100 96 92 89 85 83 81 79 75 71 68 64 62 59 57 54 53 46 46 45 47 46 45 46 45 41 41 44 41 45 48 47 43 44 49
83 87 91 93 93 92 89 87 86 84 83 84 81 77 74 74 72 68 63 61 61 56 52 48 48 45 44 42 41 41 42 42 42 41 39 38 39 39 40 43 41 43 44 48
72 73 73 75 75 75 75 77 80 78 78 74 69 67 68 65 62 62 62 56 53 49 47 44 42 39 37 36 35 36 36 37 36 36 35 33 37 35 36 37 37 40 45 50
67 69 70 70 70 70 71 71 68 70 69 66 61 59 59 58 58 54 53 50 47 46 42 39 34 32 29 28 30 30 30 30 32 33 33 33 31 30 27 28 33 35 42 42
63 63 64 64 63 64 65 64 64 62 59 56 55 56 56 53 51 48 45 44 42 38 33 30 26 24 22 20 20 22 23 27 29 31 30 29 27 28 25 26 30 30 29 27
60 61 62 61 59 59 58 57 57 56 53 53 52 50 51 49 46 42 39 37 34 30 28 27 24 22 20 23 22 22 21 22 26 29 28 29 29 29 27 28 31 31 30 30
55 54 53 53 53 54 54 54 53 50 49 49 48 48 45 42 37 36 34 32 29 28 27 26 25 25 25 24 23 22 21 23 25 26 26 26 29 30 31 30 33 32 30 29
51 50 50 50 51 50 50 49 47 48 46 46 45 42 37 33 33 32 30 28 26 25 25 23 23 22 20 19 20 21 20 21 23 26 28 27 32 31 31 31 33 31 26 23
50 48 48 47 47 46 46 46 45 45 45 42 36 32 30 31 30 29 26 23 22 22 21 20 19 20 21 20 19 18 18 19 22 25 27 31 31 31 31 29 27 26 25 25
48 46 43 44 45 45 44 43 43 40 36 31 30 28 29 27 25 24 21 21 19 18 16 15 15 16 17 16 16 18 19 19 21 25 28 30 32 33 32 31 28 27 27 28
Wind_Direction
283 286 285 288 292 294 299 302 302 305 305 308 310 308 313 315 319 320 318 323 326 328 330 328 332 333 331 334 331 319 292 275 252 238 238 238 239 239 243 246 249 254 259 260
283 284 285 291 294 295 297 300 300 301 303 306 307 310 311 315 316 319 317 318 321 326 327 325 324 329 327 330 325 317 296 276 258 240 238 240 240 240 242 245 247 252 255 260
277 277 284 287 289 291 295 298 298 300 302 304 305 309 310 314 313 314 316 317 320 324 324 323 324 326 326 326 320 315 295 275 264 250 244 244 242 240 241 244 247 250 255 257
278 279 280 282 285 289 291 295 297 297 300 300 303 306 309 312 313 313 313 316 316 321 321 323 324 323 324 320 315 311 295 273 257 250 250 248 245 243 242 244 247 249 251 257
276 278 279 280 284 287 289 291 295 294 296 299 302 301 306 309 308 309 310 312 314 316 316 319 320 321 321 315 311 304 291 277 260 250 245 247 245 246 244 244 247 249 251 256
274 276 277 281 283 285 289 289 290 293 292 296 299 299 302 304 304 306 308 309 310 312 315 316 319 318 314 312 307 299 289 275 263 253 250 248 248 247 246 243 246 248 251 256
272 274 276 279 281 282 284 286 288 290 291 293 296 297 301 302 303 304 303 305 307 308 310 311 314 314 312 309 303 292 284 275 263 253 248 248 247 246 245 244 242 246 251 256
271 271 274 276 277 279 282 284 286 288 290 291 293 295 295 297 299 302 302 305 307 308 309 312 313 309 307 305 296 287 281 276 265 255 248 242 243 242 239 238 242 243 247 252
268 270 273 275 276 278 280 282 282 285 288 290 292 291 294 293 297 298 300 302 302 306 308 309 307 306 304 300 292 285 280 277 268 255 247 243 240 240 239 238 239 241 246 250
268 270 272 274 276 278 279 280 281 284 287 288 289 291 293 294 296 296 296 300 302 305 308 304 304 302 301 294 287 280 281 276 267 258 248 242 242 239 241 239 240 242 244 249
265 267 269 273 274 277 275 276 277 281 282 283 287 288 291 294 295 296 298 300 301 301 302 301 300 299 296 291 284 282 278 273 266 259 252 243 240 242 241 244 240 242 245 247
262 267 268 268 270 272 273 274 277 278 280 282 284 288 289 292 292 295 297 299 301 299 299 298 296 295 292 286 282 278 275 270 264 259 252 246 241 239 243 244 243 243 243 247
259 260 264 265 268 269 273 275 274 279 282 282 284 287 288 290 292 294 298 297 297 298 297 294 294 292 287 284 278 274 272 269 261 257 252 246 243 240 240 241 243 244 244 245
260 262 264 266 267 269 271 276 277 278 279 281 282 285 289 291 293 293 294 295 296 294 294 293 291 289 284 280 277 275 270 270 266 263 256 250 241 239 239 244 246 247 247 247
258 262 264 268 270 272 272 274 275 278 280 282 284 285 289 290 291 291 293 293 292 292 292 292 289 285 280 279 276 270 266 262 259 252 254 255 253 244 242 244 245 246 246 246
262 263 266 269 271 273 274 276 278 280 281 283 285 285 286 289 290 291 292 291 291 291 291 290 287 284 280 280 276 266 258 264 262 255 254 249 245 248 245 245 246 245 244 245
263 265 267 269 272 274 275 277 278 280 281 281 283 285 286 288 290 291 290 290 290 290 289 288 286 283 284 278 265 267 265 263 260 257 253 246 240 236 235 233 239 242 243 243
265 266 268 270 272 274 276 277 279 280 282 283 284 286 287 289 289 289 290 290 289 289 288 287 285 282 278 271 267 262 261 257 254 252 247 245 243 235 234 232 229 230 228 234
267 268 269 271 274 276 277 278 280 281 282 283 285 287 288 288 289 289 289 289 289 289 290 286 281 278 274 269 264 260 255 251 250 247 246 241 240 238 233 236 233 225 223 229
270 270 270 272 274 276 278 279 280 282 283 284 286 288 287 287 287 288 290 291 292 292 286 283 279 277 272 267 262 258 254 252 248 243 241 237 235 232 228 232 229 224 226 227
270 270 271 274 276 277 278 280 282 283 284 287 289 288 286 286 287 289 292 292 290 285 285 283 279 274 270 263 257 255 250 244 242 239 236 234 233 233 229 222 219 221 224 231
271 273 274 276 278 280 282 282 283 284 285 287 287 284 286 289 291 291 289 286 282 281 278 275 271 268 263 261 254 249 243 236 233 232 228 226 226 225 221 210 213 217 217 219
272 274 277 279 280 279 280 282 283 285 286 285 284 288 288 289 289 287 281 276 275 275 272 269 263 254 244 238 235 236 234 229 225 225 222 215 212 207 207 202 201 202 202 204
274 275 277 277 279 281 282 282 283 284 284 285 288 286 287 287 282 276 273 275 275 273 270 264 254 246 240 236 234 230 227 223 216 215 214 208 202 199 191 195 196 201 203 203
275 277 279 281 281 281 281 282 283 285 286 285 285 285 282 277 273 273 275 276 274 270 266 259 252 246 236 230 229 227 221 218 214 206 202 194 194 193 187 191 196 197 199 197
280 281 280 280 280 281 283 284 285 284 283 283 281 276 273 272 274 275 273 271 266 263 257 252 248 237 227 217 219 216 207 205 206 203 196 187 186 189 188 191 192 195 193 187
280 280 281 282 284 284 284 284 282 281 279 276 272 272 272 273 270 267 262 258 256 252 248 242 238 228 217 210 204 198 190 191 193 190 189 185 183 184 186 188 185 186 188 190